| time (UTC) | temp C | wind direction | speed KPH | gust KPH | rain 1hr cm | rain 24hr cm | rain mn cm | humidity % | barometer mb |
| 20260507152554 | 23 | 280 | 0.0 | 0.0 | 0.00 | 0.03 | 0.03 | 44 | 1009.8 |
| 20260507152055 | 23 | 330 | 0.0 | 0.0 | 0.00 | 0.03 | 0.03 | 42 | 1009.8 |
| 20260507151554 | 24 | 325 | 0.0 | 0.0 | 0.00 | 0.03 | 0.03 | 43 | 1009.7 |
| 20260507151053 | 23 | 288 | 0.0 | 0.0 | 0.00 | 0.03 | 0.03 | 43 | 1009.8 |
| 20260507150552 | 23 | 296 | 0.0 | 0.0 | 0.00 | 0.03 | 0.03 | 44 | 1009.8 |
| 20260507150053 | 23 | 306 | 0.0 | 0.0 | 0.00 | 0.03 | 0.03 | 45 | 1009.8 |
| 20260507145553 | 23 | 281 | 0.0 | 0.0 | 0.00 | 0.03 | 0.03 | 45 | 1009.8 |
| 20260507145052 | 23 | 283 | 0.0 | 0.0 | 0.00 | 0.03 | 0.03 | 45 | 1009.9 |
| 20260507144553 | 23 | 331 | 0.0 | 0.0 | 0.00 | 0.03 | 0.03 | 46 | 1009.8 |
| 20260507144052 | 23 | 323 | 0.0 | 0.0 | 0.00 | 0.03 | 0.03 | 47 | 1009.9 |
| 20260507143552 | 23 | 341 | 0.0 | 0.0 | 0.00 | 0.03 | 0.03 | 46 | 1009.9 |
| 20260507143052 | 23 | 324 | 0.0 | 0.0 | 0.00 | 0.03 | 0.03 | 45 | 1009.9 |
| 20260507142552 | 23 | 318 | 0.0 | 0.0 | 0.00 | 0.03 | 0.03 | 46 | 1010.0 |
| 20260507142052 | 23 | 311 | 0.0 | 0.0 | 0.00 | 0.03 | 0.03 | 44 | 1010.0 |
| 20260507141559 | 23 | 307 | 0.0 | 0.0 | 0.00 | 0.03 | 0.03 | 44 | 1010.0 |
| 20260507141051 | 23 | 257 | 0.0 | 0.0 | 0.00 | 0.03 | 0.03 | 44 | 1010.0 |
| 20260507140550 | 23 | 306 | 0.0 | 0.0 | 0.00 | 0.03 | 0.03 | 47 | 1010.0 |
| 20260507140106 | 23 | 143 | 0.0 | 0.0 | 0.00 | 0.03 | 0.03 | 45 | 1010.0 |
| 20260507135547 | 23 | 275 | 0.0 | 0.0 | 0.00 | 0.03 | 0.03 | 46 | 1010.0 |
| 20260507135048 | 23 | 304 | 0.0 | 0.0 | 0.00 | 0.03 | 0.03 | 46 | 1010.0 |
| 20260507134548 | 23 | 287 | 0.0 | 0.0 | 0.00 | 0.03 | 0.03 | 46 | 1010.0 |
| 20260507134048 | 22 | 283 | 0.0 | 0.0 | 0.00 | 0.03 | 0.03 | 47 | 1010.0 |
| 20260507133548 | 22 | 273 | 0.0 | 0.0 | 0.00 | 0.03 | 0.03 | 48 | 1010.1 |
| 20260507133048 | 22 | 313 | 0.0 | 0.0 | 0.00 | 0.03 | 0.03 | 47 | 1010.1 |
| 20260507132547 | 22 | 330 | 0.0 | 0.0 | 0.00 | 0.03 | 0.03 | 45 | 1010.2 |
| 20260507132046 | 22 | 302 | 0.0 | 0.0 | 0.00 | 0.03 | 0.03 | 45 | 1010.2 |
| 20260507131554 | 22 | 317 | 0.0 | 0.0 | 0.00 | 0.03 | 0.03 | 48 | 1010.1 |
| 20260507131049 | 22 | 326 | 0.0 | 0.0 | 0.00 | 0.03 | 0.03 | 49 | 1010.2 |
| 20260507130545 | 22 | 314 | 0.0 | 0.0 | 0.00 | 0.03 | 0.03 | 48 | 1010.2 |
| 20260507130052 | 22 | 333 | 0.0 | 0.0 | 0.00 | 0.03 | 0.03 | 50 | 1010.1 |
| 20260507125547 | 22 | 323 | 0.0 | 0.0 | 0.00 | 0.03 | 0.03 | 49 | 1010.2 |
| 20260507125045 | 22 | 275 | 0.0 | 0.0 | 0.00 | 0.03 | 0.03 | 50 | 1010.2 |
| 20260507124601 | 23 | 323 | 0.0 | 0.0 | 0.00 | 0.03 | 0.03 | 48 | 1010.2 |
| 20260507124045 | 22 | 263 | 0.0 | 0.0 | 0.00 | 0.03 | 0.03 | 50 | 1010.2 |
| 20260507123545 | 23 | 325 | 0.0 | 0.0 | 0.00 | 0.03 | 0.03 | 48 | 1010.2 |
| 20260507123054 | 23 | 234 | 0.0 | 0.0 | 0.00 | 0.03 | 0.03 | 48 | 1010.2 |
| 20260507122545 | 23 | 330 | 0.0 | 0.0 | 0.00 | 0.03 | 0.03 | 49 | 1010.3 |
| 20260507122045 | 23 | 283 | 0.0 | 0.0 | 0.00 | 0.03 | 0.03 | 50 | 1010.3 |
| 20260507121547 | 22 | 269 | 0.0 | 0.0 | 0.00 | 0.03 | 0.03 | 49 | 1010.3 |
| 20260507121042 | 22 | 360 | 0.0 | 0.0 | 0.00 | 0.03 | 0.03 | 49 | 1010.2 |
| 20260507120540 | 22 | 313 | 0.0 | 0.0 | 0.00 | 0.03 | 0.03 | 53 | 1010.3 |
| 20260507120043 | 22 | 323 | 0.0 | 0.0 | 0.00 | 0.03 | 0.03 | 52 | 1010.4 |
| 20260507115539 | 22 | 302 | 0.0 | 0.0 | 0.00 | 0.05 | 0.03 | 53 | 1010.4 |
| 20260507115038 | 22 | 265 | 0.0 | 0.0 | 0.00 | 0.05 | 0.03 | 52 | 1010.5 |
| 20260507114544 | 22 | 249 | 0.0 | 0.0 | 0.00 | 0.05 | 0.03 | 53 | 1010.4 |
| 20260507114040 | 22 | 192 | 0.0 | 0.0 | 0.00 | 0.05 | 0.03 | 54 | 1010.5 |
| 20260507113538 | 22 | 248 | 0.0 | 0.0 | 0.00 | 0.05 | 0.03 | 54 | 1010.5 |
| 20260507113039 | 22 | 227 | 0.0 | 0.0 | 0.00 | 0.05 | 0.03 | 53 | 1010.5 |
| 20260507112537 | 22 | 277 | 0.0 | 0.0 | 0.00 | 0.05 | 0.03 | 55 | 1010.6 |
| 20260507112035 | 22 | 331 | 0.0 | 0.0 | 0.00 | 0.05 | 0.03 | 54 | 1010.7 |
| 20260507111535 | 21 | 318 | 0.0 | 0.0 | 0.00 | 0.05 | 0.03 | 54 | 1010.7 |
| 20260507111035 | 21 | 326 | 0.0 | 0.0 | 0.00 | 0.05 | 0.03 | 55 | 1010.7 |
| 20260507110535 | 21 | 330 | 0.0 | 0.0 | 0.00 | 0.05 | 0.03 | 56 | 1010.8 |
| 20260507110035 | 21 | 294 | 0.0 | 0.0 | 0.00 | 0.05 | 0.03 | 56 | 1010.9 |
| 20260507105533 | 21 | 243 | 0.0 | 0.0 | 0.00 | 0.05 | 0.03 | 56 | 1010.9 |
| 20260507105032 | 21 | 323 | 0.0 | 0.0 | 0.00 | 0.05 | 0.03 | 57 | 1010.9 |
| 20260507104532 | 21 | 299 | 0.0 | 0.0 | 0.00 | 0.05 | 0.03 | 58 | 1010.9 |
| 20260507104031 | 21 | 307 | 0.0 | 0.0 | 0.00 | 0.05 | 0.03 | 61 | 1010.9 |
| 20260507103530 | 21 | 299 | 0.0 | 0.0 | 0.00 | 0.05 | 0.03 | 61 | 1011.0 |
| 20260507103029 | 21 | 265 | 0.0 | 0.0 | 0.00 | 0.05 | 0.03 | 61 | 1011.0 |
| 20260507102529 | 21 | 269 | 0.0 | 0.0 | 0.00 | 0.05 | 0.03 | 61 | 1011.1 |
| 20260507102028 | 20 | 304 | 0.0 | 0.0 | 0.00 | 0.05 | 0.03 | 60 | 1011.2 |
| 20260507101534 | 20 | 306 | 0.0 | 0.0 | 0.00 | 0.05 | 0.03 | 62 | 1011.3 |
| 20260507101027 | 20 | 306 | 0.0 | 0.0 | 0.00 | 0.05 | 0.03 | 62 | 1011.2 |
| 20260507100526 | 20 | 207 | 0.0 | 0.0 | 0.00 | 0.05 | 0.03 | 62 | 1011.2 |
| 20260507100032 | 20 | 308 | 0.0 | 0.0 | 0.00 | 0.05 | 0.03 | 66 | 1011.3 |
| 20260507095525 | 20 | 304 | 0.0 | 0.0 | 0.00 | 0.05 | 0.03 | 66 | 1011.5 |
| 20260507095025 | 20 | 307 | 0.0 | 0.0 | 0.00 | 0.05 | 0.03 | 66 | 1011.4 |
| 20260507094524 | 20 | 307 | 0.0 | 0.0 | 0.00 | 0.05 | 0.03 | 66 | 1011.3 |
| 20260507094022 | 20 | 304 | 0.0 | 0.0 | 0.00 | 0.05 | 0.03 | 63 | 1011.4 |
| 20260507093523 | 20 | 237 | 0.0 | 0.0 | 0.00 | 0.05 | 0.03 | 65 | 1011.4 |
| 20260507093035 | 20 | 256 | 0.0 | 0.0 | 0.00 | 0.05 | 0.03 | 66 | 1011.3 |
| 20260507092524 | 20 | 249 | 0.0 | 0.0 | 0.00 | 0.05 | 0.03 | 65 | 1011.2 |
| 20260507092021 | 19 | 296 | 0.0 | 0.0 | 0.00 | 0.05 | 0.03 | 64 | 1011.2 |
| 20260507091521 | 19 | 291 | 0.0 | 0.0 | 0.00 | 0.05 | 0.03 | 67 | 1011.1 |
| 20260507091021 | 19 | 291 | 0.0 | 0.0 | 0.00 | 0.05 | 0.03 | 65 | 1011.2 |
| 20260507090523 | 18 | 296 | 0.0 | 0.0 | 0.00 | 0.05 | 0.03 | 65 | 1011.2 |
| 20260507090029 | 18 | 272 | 0.0 | 0.0 | 0.00 | 0.05 | 0.03 | 67 | 1011.1 |
| 20260507085520 | 20 | 201 | 0.0 | 0.0 | 0.00 | 0.05 | 0.03 | 68 | 1011.2 |
| 20260507085018 | 20 | 211 | 0.0 | 0.0 | 0.00 | 0.05 | 0.03 | 68 | 1011.2 |
| 20260507084517 | 20 | 197 | 0.0 | 0.0 | 0.00 | 0.05 | 0.03 | 70 | 1011.2 |
| 20260507084022 | 20 | 182 | 0.0 | 0.0 | 0.00 | 0.05 | 0.03 | 71 | 1011.1 |
| 20260507083515 | 18 | 311 | 0.0 | 0.0 | 0.00 | 0.05 | 0.03 | 68 | 1011.2 |
| 20260507083031 | 18 | 307 | 0.0 | 0.0 | 0.00 | 0.05 | 0.03 | 70 | 1011.2 |
| 20260507082514 | 18 | 283 | 0.0 | 0.0 | 0.00 | 0.05 | 0.03 | 70 | 1011.1 |
| 20260507082013 | 18 | 286 | 0.0 | 0.0 | 0.00 | 0.05 | 0.03 | 72 | 1011.1 |
| 20260507081514 | 18 | 275 | 0.0 | 0.0 | 0.00 | 0.05 | 0.03 | 70 | 1011.2 |
| 20260507081012 | 17 | 265 | 0.0 | 0.0 | 0.00 | 0.05 | 0.03 | 71 | 1011.2 |
| 20260507080511 | 17 | 315 | 0.0 | 0.0 | 0.00 | 0.05 | 0.03 | 71 | 1011.2 |
| 20260507080009 | 17 | 306 | 0.0 | 0.0 | 0.00 | 0.05 | 0.03 | 73 | 1011.2 |
| 20260507075508 | 17 | 247 | 0.0 | 0.0 | 0.00 | 0.05 | 0.03 | 72 | 1011.3 |
| 20260507075008 | 17 | 277 | 0.0 | 0.0 | 0.00 | 0.05 | 0.03 | 74 | 1011.2 |
| 20260507074520 | 17 | 261 | 0.0 | 0.0 | 0.00 | 0.05 | 0.03 | 74 | 1011.2 |
| 20260507074007 | 17 | 257 | 0.0 | 0.0 | 0.00 | 0.05 | 0.03 | 76 | 1011.2 |
| 20260507073507 | 16 | 313 | 0.0 | 0.0 | 0.00 | 0.05 | 0.03 | 76 | 1011.2 |
| 20260507073006 | 16 | 222 | 0.0 | 0.0 | 0.00 | 0.05 | 0.03 | 81 | 1011.2 |
| 20260507072506 | 16 | 284 | 0.0 | 0.0 | 0.00 | 0.05 | 0.03 | 83 | 1011.1 |
| 20260507072006 | 16 | 275 | 0.0 | 0.0 | 0.00 | 0.05 | 0.03 | 84 | 1011.1 |
| 20260507071505 | 15 | 263 | 0.0 | 0.0 | 0.00 | 0.05 | 0.03 | 88 | 1011.1 |
| 20260507071008 | 15 | 223 | 0.0 | 0.0 | 0.00 | 0.05 | 0.03 | 88 | 1011.1 |
| 20260507070502 | 15 | 118 | 0.0 | 0.0 | 0.00 | 0.05 | 0.03 | 89 | 1011.0 |
| 20260507070004 | 14 | 261 | 0.0 | 0.0 | 0.00 | 0.05 | 0.03 | 90 | 1011.0 |
| 20260507065500 | 14 | 257 | 0.0 | 0.0 | 0.00 | 0.05 | 0.03 | 90 | 1011.0 |
| 20260507065002 | 13 | 281 | 0.0 | 0.0 | 0.00 | 0.05 | 0.03 | 89 | 1011.0 |
| 20260507064500 | 14 | 249 | 0.0 | 0.0 | 0.00 | 0.05 | 0.03 | 88 | 1010.9 |
| 20260507064101 | 14 | 225 | 0.0 | 0.0 | 0.00 | 0.05 | 0.03 | 81 | 1010.9 |
| 20260507063601 | 14 | 257 | 0.0 | 0.0 | 0.00 | 0.05 | 0.03 | 73 | 1010.9 |
| 20260507063101 | 14 | 59 | 0.0 | 0.0 | 0.00 | 0.05 | 0.03 | 97 | 1010.9 |
| 20260507062558 | 13 | 59 | 0.0 | 0.0 | 0.00 | 0.05 | 0.03 | 98 | 1010.8 |
| 20260507062057 | 13 | 59 | 0.0 | 0.0 | 0.00 | 0.05 | 0.03 | 98 | 1010.7 |
| 20260507061557 | 13 | 59 | 0.0 | 0.0 | 0.00 | 0.05 | 0.03 | 98 | 1010.7 |
| 20260507061055 | 12 | 59 | 0.0 | 0.0 | 0.00 | 0.05 | 0.03 | 98 | 1010.7 |
| 20260507060553 | 12 | 59 | 0.0 | 0.0 | 0.00 | 0.05 | 0.03 | 98 | 1010.7 |
| 20260507060052 | 12 | 59 | 0.0 | 0.0 | 0.00 | 0.05 | 0.03 | 98 | 1010.7 |
| 20260507055551 | 12 | 59 | 0.0 | 0.0 | 0.00 | 0.10 | 0.03 | 98 | 1010.7 |
| 20260507055050 | 12 | 59 | 0.0 | 0.0 | 0.00 | 0.10 | 0.03 | 98 | 1010.6 |
| 20260507054557 | 11 | 59 | 0.0 | 0.0 | 0.00 | 0.10 | 0.03 | 98 | 1010.6 |
| 20260507054049 | 11 | 59 | 0.0 | 0.0 | 0.00 | 0.10 | 0.03 | 98 | 1010.6 |
| 20260507053548 | 11 | 59 | 0.0 | 0.0 | 0.00 | 0.10 | 0.03 | 98 | 1010.5 |
| 20260507053048 | 11 | 47 | 0.0 | 0.0 | 0.03 | 0.10 | 0.03 | 98 | 1010.4 |
| 20260507052550 | 11 | 47 | 0.0 | 0.0 | 0.03 | 0.10 | 0.03 | 98 | 1010.3 |
| 20260507052046 | 11 | 47 | 0.0 | 0.0 | 0.03 | 0.10 | 0.03 | 98 | 1010.2 |
| 20260507051545 | 11 | 47 | 0.0 | 0.0 | 0.03 | 0.10 | 0.03 | 98 | 1010.2 |
| 20260507051044 | 10 | 47 | 0.0 | 0.0 | 0.03 | 0.10 | 0.03 | 98 | 1010.2 |
| 20260507050544 | 10 | 47 | 0.0 | 0.0 | 0.03 | 0.10 | 0.03 | 97 | 1010.2 |
| 20260507050043 | 9 | 47 | 0.0 | 0.0 | 0.03 | 0.10 | 0.03 | 97 | 1010.1 |
| 20260507045542 | 9 | 47 | 0.0 | 0.0 | 0.03 | 0.10 | 0.03 | 97 | 1010.1 |
| 20260507045041 | 9 | 47 | 0.0 | 0.0 | 0.03 | 0.10 | 0.03 | 97 | 1010.0 |
| 20260507044540 | 9 | 47 | 0.0 | 0.0 | 0.03 | 0.10 | 0.03 | 97 | 1009.9 |
| 20260507044040 | 9 | 47 | 0.0 | 0.0 | 0.03 | 0.10 | 0.03 | 97 | 1009.8 |
| 20260507043538 | 9 | 47 | 0.0 | 0.0 | 0.03 | 0.10 | 0.03 | 97 | 1009.9 |
| 20260507043038 | 8 | 47 | 0.0 | 0.0 | 0.00 | 0.08 | 0.00 | 97 | 1009.9 |
| 20260507042536 | 8 | 47 | 0.0 | 0.0 | 0.00 | 0.08 | 0.00 | 97 | 1009.8 |
| 20260507042035 | 8 | 47 | 0.0 | 0.0 | 0.00 | 0.08 | 0.00 | 97 | 1009.7 |
| 20260507041534 | 8 | 47 | 0.0 | 0.0 | 0.00 | 0.08 | 0.00 | 97 | 1009.6 |
| 20260507041033 | 8 | 47 | 0.0 | 0.0 | 0.00 | 0.08 | 0.00 | 97 | 1009.5 |
| 20260507040533 | 8 | 47 | 0.0 | 0.0 | 0.00 | 0.08 | 0.00 | 97 | 1009.5 |
| 20260507040035 | 8 | 47 | 0.0 | 0.0 | 0.00 | 0.08 | 0.00 | 97 | 1009.5 |
| 20260507035532 | 8 | 47 | 0.0 | 0.0 | 0.00 | 0.15 | 0.00 | 97 | 1009.4 |
| 20260507035031 | 8 | 47 | 0.0 | 0.0 | 0.00 | 0.15 | 0.00 | 97 | 1009.4 |
| 20260507034531 | 8 | 47 | 0.0 | 0.0 | 0.00 | 0.15 | 0.00 | 97 | 1009.4 |
| 20260507034031 | 8 | 47 | 0.0 | 0.0 | 0.00 | 0.15 | 0.00 | 97 | 1009.4 |
| 20260507033533 | 8 | 47 | 0.0 | 0.0 | 0.00 | 0.15 | 0.00 | 97 | 1009.4 |
| 20260507033032 | 8 | 47 | 0.0 | 0.0 | 0.00 | 0.15 | 0.00 | 97 | 1009.3 |
| 20260507032529 | 9 | 47 | 0.0 | 0.0 | 0.00 | 0.15 | 0.00 | 97 | 1009.3 |
| 20260507032032 | 9 | 47 | 0.0 | 0.0 | 0.00 | 0.15 | 0.00 | 97 | 1009.4 |
| 20260507031529 | 9 | 47 | 0.0 | 0.0 | 0.00 | 0.15 | 0.00 | 97 | 1009.3 |
| 20260507031029 | 8 | 47 | 0.0 | 0.0 | 0.00 | 0.15 | 0.00 | 97 | 1009.3 |
| 20260507030528 | 9 | 47 | 0.0 | 0.0 | 0.00 | 0.15 | 0.00 | 96 | 1009.3 |
| 20260507030030 | 9 | 47 | 0.0 | 0.0 | 0.00 | 0.15 | 0.00 | 96 | 1009.4 |
| 20260507025526 | 9 | 47 | 0.0 | 0.0 | 0.00 | 0.18 | 0.00 | 96 | 1009.4 |
| 20260507025025 | 9 | 47 | 0.0 | 0.0 | 0.00 | 0.18 | 0.00 | 96 | 1009.4 |
| 20260507024525 | 9 | 47 | 0.0 | 0.0 | 0.00 | 0.18 | 0.00 | 97 | 1009.3 |
| 20260507024027 | 10 | 47 | 0.0 | 0.0 | 0.00 | 0.18 | 0.00 | 97 | 1009.3 |
| 20260507023524 | 10 | 47 | 0.0 | 0.0 | 0.00 | 0.18 | 0.00 | 96 | 1009.3 |
| 20260507023028 | 10 | 47 | 0.0 | 0.0 | 0.00 | 0.18 | 0.00 | 96 | 1009.3 |
| 20260507022527 | 10 | 47 | 0.0 | 0.0 | 0.00 | 0.18 | 0.00 | 96 | 1009.3 |
| 20260507022023 | 10 | 47 | 0.0 | 0.0 | 0.00 | 0.18 | 0.00 | 96 | 1009.2 |
| 20260507021522 | 10 | 47 | 0.0 | 0.0 | 0.00 | 0.18 | 0.00 | 96 | 1009.3 |
| 20260507021021 | 10 | 47 | 0.0 | 0.0 | 0.00 | 0.18 | 0.00 | 97 | 1009.4 |
| 20260507020521 | 11 | 47 | 0.0 | 0.0 | 0.00 | 0.18 | 0.00 | 97 | 1009.3 |
| 20260507020021 | 10 | 47 | 0.0 | 0.0 | 0.00 | 0.18 | 0.00 | 97 | 1009.3 |
| 20260507015524 | 10 | 47 | 0.0 | 0.0 | 0.00 | 0.18 | 0.00 | 97 | 1009.4 |
| 20260507015020 | 10 | 47 | 0.0 | 0.0 | 0.00 | 0.18 | 0.00 | 96 | 1009.3 |
| 20260507014518 | 11 | 47 | 0.0 | 0.0 | 0.00 | 0.18 | 0.00 | 96 | 1009.2 |
| 20260507014018 | 11 | 47 | 0.0 | 0.0 | 0.00 | 0.18 | 0.00 | 96 | 1009.2 |
| 20260507013517 | 10 | 47 | 0.0 | 0.0 | 0.00 | 0.18 | 0.00 | 96 | 1009.1 |
| 20260507013019 | 10 | 47 | 0.0 | 0.0 | 0.00 | 0.18 | 0.00 | 96 | 1009.1 |
| 20260507012518 | 11 | 47 | 0.0 | 0.0 | 0.00 | 0.18 | 0.00 | 96 | 1009.1 |
| 20260507012017 | 11 | 47 | 0.0 | 0.0 | 0.00 | 0.18 | 0.00 | 96 | 1009.0 |
| 20260507011530 | 11 | 47 | 0.0 | 0.0 | 0.00 | 0.18 | 0.00 | 96 | 1009.1 |
| 20260507011014 | 11 | 47 | 0.0 | 0.0 | 0.00 | 0.18 | 0.00 | 96 | 1009.0 |
| 20260507010513 | 11 | 47 | 0.0 | 0.0 | 0.00 | 0.18 | 0.00 | 96 | 1009.0 |
| 20260507010013 | 11 | 47 | 0.0 | 0.0 | 0.00 | 0.18 | 0.00 | 96 | 1009.0 |
| 20260507005515 | 11 | 47 | 0.0 | 0.0 | 0.00 | 0.18 | 0.00 | 96 | 1009.0 |
| 20260507005010 | 12 | 47 | 0.0 | 0.0 | 0.00 | 0.18 | 0.00 | 96 | 1009.0 |
| 20260507004517 | 12 | 47 | 0.0 | 0.0 | 0.00 | 0.18 | 0.00 | 96 | 1009.1 |
| 20260507004010 | 12 | 47 | 0.0 | 0.0 | 0.00 | 0.18 | 0.00 | 96 | 1009.0 |
| 20260507003510 | 12 | 47 | 0.0 | 0.0 | 0.00 | 0.18 | 0.00 | 96 | 1009.0 |
| 20260507003016 | 12 | 47 | 0.0 | 0.0 | 0.00 | 0.18 | 0.00 | 96 | 1009.0 |
| 20260507002509 | 12 | 47 | 0.0 | 0.0 | 0.00 | 0.18 | 0.00 | 96 | 1009.0 |
| 20260507002011 | 12 | 48 | 0.0 | 0.0 | 0.00 | 0.18 | 0.00 | 96 | 1009.1 |
| 20260507001509 | 12 | 48 | 0.0 | 0.0 | 0.00 | 0.18 | 0.00 | 96 | 1009.0 |
| 20260507001009 | 13 | 269 | 0.0 | 0.0 | 0.00 | 0.18 | 0.00 | 80 | 1009.1 |
| 20260507000506 | 13 | 269 | 0.0 | 0.0 | 0.00 | 0.18 | 0.00 | 80 | 1009.1 |
| 20260507000006 | 13 | 269 | 0.0 | 0.0 | 0.00 | 0.18 | 0.00 | 80 | 1009.0 |
| 20260506235506 | 13 | 28 | 0.0 | 0.0 | 0.00 | 0.18 | 0.00 | 80 | 1009.0 |
| 20260506235005 | 13 | 28 | 0.0 | 0.0 | 0.00 | 0.18 | 0.00 | 82 | 1009.0 |
| 20260506234509 | 13 | 28 | 0.0 | 0.0 | 0.00 | 0.18 | 0.00 | 80 | 1008.9 |
| 20260506234003 | 13 | 28 | 0.0 | 0.0 | 0.00 | 0.18 | 0.00 | 80 | 1008.9 |
| 20260506233503 | 14 | 28 | 0.0 | 0.0 | 0.00 | 0.18 | 0.00 | 79 | 1009.0 |
| 20260506233002 | 13 | 28 | 0.0 | 0.0 | 0.00 | 0.18 | 0.00 | 80 | 1009.1 |
| 20260506232502 | 14 | 28 | 0.0 | 0.0 | 0.00 | 0.18 | 0.00 | 79 | 1009.0 |
| 20260506232000 | 14 | 28 | 0.0 | 0.0 | 0.00 | 0.18 | 0.00 | 79 | 1009.0 |
| 20260506231600 | 14 | 28 | 0.0 | 0.0 | 0.00 | 0.18 | 0.00 | 79 | 1008.9 |
| 20260506231100 | 14 | 28 | 0.0 | 0.0 | 0.00 | 0.18 | 0.00 | 80 | 1008.8 |
| 20260506230600 | 14 | 28 | 0.0 | 0.0 | 0.00 | 0.18 | 0.00 | 81 | 1008.8 |
| 20260506230058 | 14 | 28 | 0.0 | 0.0 | 0.00 | 0.18 | 0.00 | 81 | 1008.9 |
| 20260506225557 | 14 | 28 | 0.0 | 0.0 | 0.00 | 0.18 | 0.00 | 80 | 1008.8 |
| 20260506225057 | 14 | 28 | 0.0 | 0.0 | 0.00 | 0.18 | 0.00 | 81 | 1008.8 |
| 20260506224557 | 14 | 30 | 0.0 | 0.0 | 0.00 | 0.18 | 0.00 | 81 | 1008.8 |
| 20260506224055 | 14 | 38 | 0.0 | 0.0 | 0.00 | 0.18 | 0.00 | 81 | 1008.8 |
| 20260506223555 | 14 | 38 | 0.0 | 0.0 | 0.00 | 0.18 | 0.00 | 82 | 1008.9 |
| 20260506223056 | 14 | 27 | 0.0 | 0.0 | 0.00 | 0.18 | 0.00 | 82 | 1008.9 |
| 20260506222555 | 15 | 36 | 0.0 | 0.0 | 0.00 | 0.18 | 0.00 | 82 | 1008.9 |
| 20260506222055 | 14 | 31 | 0.0 | 0.0 | 0.00 | 0.18 | 0.00 | 82 | 1008.9 |
| 20260506221555 | 15 | 31 | 0.0 | 0.0 | 0.00 | 0.18 | 0.00 | 83 | 1008.8 |
| 20260506221053 | 15 | 31 | 0.0 | 0.0 | 0.00 | 0.18 | 0.00 | 84 | 1008.9 |
| 20260506220552 | 15 | 31 | 0.0 | 0.0 | 0.00 | 0.18 | 0.00 | 84 | 1008.9 |
| 20260506220059 | 15 | 31 | 0.0 | 0.0 | 0.00 | 0.18 | 0.00 | 84 | 1008.9 |
| 20260506215549 | 15 | 34 | 0.0 | 0.0 | 0.00 | 0.18 | 0.18 | 85 | 1008.9 |
| 20260506215048 | 15 | 346 | 0.0 | 0.0 | 0.00 | 0.18 | 0.18 | 86 | 1008.9 |
| 20260506214548 | 15 | 346 | 0.0 | 0.0 | 0.00 | 0.18 | 0.18 | 86 | 1008.7 |
| 20260506214045 | 15 | 98 | 0.0 | 0.0 | 0.00 | 0.18 | 0.18 | 86 | 1008.7 |
| 20260506213543 | 15 | 98 | 0.0 | 0.0 | 0.00 | 0.18 | 0.18 | 87 | 1008.8 |
| 20260506213044 | 15 | 98 | 0.0 | 0.0 | 0.00 | 0.18 | 0.18 | 87 | 1008.6 |
| 20260506212541 | 15 | 98 | 0.0 | 0.0 | 0.00 | 0.18 | 0.18 | 87 | 1008.6 |
| 20260506212043 | 15 | 98 | 0.0 | 0.0 | 0.00 | 0.18 | 0.18 | 87 | 1008.7 |
| 20260506211538 | 15 | 98 | 0.0 | 0.0 | 0.00 | 0.18 | 0.18 | 88 | 1008.7 |
| 20260506211036 | 15 | 98 | 0.0 | 0.0 | 0.00 | 0.18 | 0.18 | 88 | 1008.7 |
| 20260506210538 | 15 | 98 | 0.0 | 0.0 | 0.00 | 0.18 | 0.18 | 88 | 1008.6 |
| 20260506210033 | 15 | 98 | 0.0 | 0.0 | 0.00 | 0.18 | 0.18 | 88 | 1008.6 |
| 20260506205531 | 15 | 98 | 0.0 | 0.0 | 0.00 | 0.18 | 0.18 | 88 | 1008.6 |
| 20260506205031 | 15 | 98 | 0.0 | 0.0 | 0.00 | 0.18 | 0.18 | 89 | 1008.6 |
| 20260506204531 | 15 | 98 | 0.0 | 0.0 | 0.00 | 0.18 | 0.18 | 89 | 1008.5 |
| 20260506204032 | 15 | 98 | 0.0 | 0.0 | 0.00 | 0.18 | 0.18 | 89 | 1008.4 |
| 20260506203526 | 15 | 135 | 0.0 | 0.0 | 0.00 | 0.18 | 0.18 | 89 | 1008.4 |
| 20260506203033 | 15 | 122 | 0.0 | 0.0 | 0.00 | 0.18 | 0.18 | 89 | 1008.3 |
| 20260506202525 | 15 | 130 | 0.0 | 0.0 | 0.00 | 0.18 | 0.18 | 89 | 1008.3 |
| 20260506202022 | 15 | 76 | 0.0 | 0.0 | 0.00 | 0.18 | 0.18 | 89 | 1008.3 |
| 20260506201522 | 16 | 76 | 0.0 | 0.0 | 0.00 | 0.18 | 0.18 | 89 | 1008.3 |
| 20260506201019 | 16 | 76 | 0.0 | 0.0 | 0.00 | 0.18 | 0.18 | 89 | 1008.3 |
| 20260506200517 | 16 | 76 | 0.0 | 0.0 | 0.00 | 0.18 | 0.18 | 89 | 1008.3 |
| 20260506200019 | 16 | 77 | 0.0 | 0.0 | 0.00 | 0.18 | 0.18 | 89 | 1008.3 |
| 20260506195515 | 16 | 77 | 0.0 | 0.0 | 0.00 | 0.18 | 0.18 | 89 | 1008.2 |
| 20260506195013 | 16 | 80 | 0.0 | 0.0 | 0.00 | 0.18 | 0.18 | 89 | 1008.0 |
| 20260506194512 | 16 | 80 | 0.0 | 0.0 | 0.00 | 0.18 | 0.18 | 89 | 1008.0 |
| 20260506194010 | 16 | 351 | 0.0 | 0.0 | 0.00 | 0.18 | 0.18 | 89 | 1008.0 |
| 20260506193508 | 16 | 332 | 0.0 | 0.0 | 0.00 | 0.18 | 0.18 | 89 | 1007.9 |
| 20260506193007 | 16 | 111 | 0.0 | 0.0 | 0.00 | 0.18 | 0.18 | 89 | 1007.8 |
| 20260506192506 | 16 | 112 | 0.0 | 0.0 | 0.00 | 0.18 | 0.18 | 88 | 1007.6 |
| 20260506192004 | 16 | 112 | 0.0 | 0.0 | 0.00 | 0.18 | 0.18 | 88 | 1007.6 |
| 20260506191504 | 16 | 111 | 0.0 | 0.0 | 0.00 | 0.18 | 0.18 | 88 | 1007.6 |
| 20260506191001 | 16 | 112 | 0.0 | 0.0 | 0.00 | 0.18 | 0.18 | 87 | 1007.5 |
| 20260506190600 | 16 | 112 | 0.0 | 0.0 | 0.00 | 0.18 | 0.18 | 87 | 1007.4 |
| 20260506190058 | 16 | 112 | 0.0 | 0.0 | 0.00 | 0.18 | 0.18 | 86 | 1007.4 |
| 20260506185557 | 16 | 112 | 0.0 | 0.0 | 0.00 | 0.18 | 0.18 | 85 | 1007.3 |
| 20260506185058 | 16 | 112 | 0.0 | 0.0 | 0.00 | 0.18 | 0.18 | 85 | 1007.3 |
| 20260506184600 | 16 | 112 | 0.0 | 0.0 | 0.00 | 0.18 | 0.18 | 85 | 1007.2 |
| 20260506184053 | 16 | 112 | 0.0 | 0.0 | 0.00 | 0.18 | 0.18 | 84 | 1007.2 |
| 20260506183552 | 17 | 112 | 0.0 | 0.0 | 0.00 | 0.18 | 0.18 | 84 | 1007.1 |
| 20260506183053 | 17 | 113 | 0.0 | 0.0 | 0.00 | 0.18 | 0.18 | 83 | 1007.1 |
| 20260506182548 | 17 | 113 | 0.0 | 0.0 | 0.00 | 0.18 | 0.18 | 82 | 1007.0 |
| 20260506182048 | 17 | 107 | 0.0 | 0.0 | 0.00 | 0.18 | 0.18 | 81 | 1006.9 |
| 20260506181546 | 18 | 109 | 0.0 | 0.0 | 0.00 | 0.18 | 0.18 | 81 | 1006.8 |
| 20260506181045 | 18 | 101 | 0.0 | 0.0 | 0.00 | 0.18 | 0.18 | 80 | 1006.8 |
| 20260506180544 | 18 | 101 | 0.0 | 0.0 | 0.00 | 0.18 | 0.18 | 79 | 1006.7 |
| 20260506180043 | 18 | 113 | 0.0 | 0.0 | 0.00 | 0.18 | 0.18 | 78 | 1006.6 |
| 20260506175539 | 18 | 113 | 0.0 | 0.0 | 0.00 | 0.18 | 0.18 | 78 | 1006.6 |
| 20260506175040 | 18 | 101 | 0.0 | 0.0 | 0.00 | 0.18 | 0.18 | 77 | 1006.6 |
| 20260506174537 | 18 | 148 | 0.0 | 0.0 | 0.00 | 0.18 | 0.18 | 77 | 1006.5 |
| 20260506174035 | 18 | 115 | 0.0 | 0.0 | 0.00 | 0.18 | 0.18 | 75 | 1006.5 |
| 20260506173534 | 18 | 115 | 0.0 | 0.0 | 0.00 | 0.18 | 0.18 | 74 | 1006.5 |
| 20260506173042 | 18 | 118 | 0.0 | 0.0 | 0.00 | 0.18 | 0.18 | 74 | 1006.4 |
| 20260506172531 | 17 | 121 | 0.0 | 0.0 | 0.00 | 0.18 | 0.18 | 74 | 1006.4 |
| 20260506172031 | 17 | 100 | 0.0 | 0.0 | 0.00 | 0.18 | 0.18 | 74 | 1006.4 |
| 20260506171529 | 17 | 87 | 0.0 | 0.0 | 0.00 | 0.18 | 0.18 | 73 | 1006.5 |
| 20260506171028 | 17 | 33 | 0.0 | 0.0 | 0.00 | 0.18 | 0.18 | 72 | 1006.5 |
| 20260506170529 | 17 | 103 | 0.0 | 0.0 | 0.00 | 0.18 | 0.18 | 74 | 1006.5 |
| 20260506170024 | 17 | 98 | 0.0 | 0.0 | 0.00 | 0.18 | 0.18 | 74 | 1006.4 |
| 20260506165522 | 18 | 129 | 0.0 | 0.0 | 0.00 | 0.18 | 0.18 | 74 | 1006.3 |
| 20260506165021 | 18 | 52 | 0.0 | 0.0 | 0.00 | 0.18 | 0.18 | 74 | 1006.4 |
| 20260506164520 | 18 | 271 | 0.0 | 0.0 | 0.00 | 0.18 | 0.18 | 74 | 1006.4 |
| 20260506164019 | 17 | 271 | 0.0 | 0.0 | 0.00 | 0.18 | 0.18 | 75 | 1006.3 |
| 20260506163518 | 17 | 306 | 0.0 | 0.0 | 0.00 | 0.18 | 0.18 | 74 | 1006.4 |
| 20260506163034 | 17 | 348 | 0.0 | 0.0 | 0.00 | 0.18 | 0.18 | 72 | 1006.3 |
| 20260506162514 | 17 | 27 | 0.0 | 0.0 | 0.00 | 0.18 | 0.18 | 74 | 1006.3 |
| 20260506162017 | 18 | 202 | 0.0 | 0.0 | 0.00 | 0.18 | 0.18 | 74 | 1006.6 |
| 20260506161515 | 18 | 327 | 0.0 | 0.0 | 0.00 | 0.18 | 0.18 | 74 | 1006.5 |
| 20260506161010 | 19 | 56 | 0.0 | 0.0 | 0.00 | 0.18 | 0.18 | 74 | 1006.6 |
| 20260506160509 | 20 | 344 | 0.0 | 0.0 | 0.00 | 0.18 | 0.18 | 76 | 1006.5 |
| 20260506160008 | 20 | 264 | 0.0 | 0.0 | 0.00 | 0.18 | 0.18 | 75 | 1006.1 |
| 20260506155504 | 21 | 152 | 0.0 | 0.0 | 0.00 | 0.18 | 0.18 | 75 | 1006.0 |
| 20260506155004 | 21 | 138 | 0.0 | 0.0 | 0.00 | 0.18 | 0.18 | 75 | 1006.1 |
| 20260506154507 | 20 | 122 | 0.0 | 0.0 | 0.00 | 0.18 | 0.18 | 74 | 1006.1 |
| 20260506154002 | 20 | 179 | 0.0 | 0.0 | 0.00 | 0.18 | 0.18 | 75 | 1006.1 |
| 20260506153600 | 20 | 123 | 0.0 | 0.0 | 0.00 | 0.18 | 0.18 | 77 | 1006.2 |
| 20260506153126 | 20 | 137 | 0.0 | 0.0 | 0.00 | 0.18 | 0.18 | 77 | 1006.2 |